Flag for USA

Past Weather in 43°02'22"N, 88°11'56"W, USA — Yesterday and Last 2 Weeks

Now
57 °F

Broken clouds.


Feels Like: 54 °F
Forecast: 57 / 46 °F
Wind: 14 mph from Northwest

Location: Waukesha County Airport
Current Time: Sep 28, 2020 at 5:09:50 pm
Latest Report: Sep 28, 2020 at 3:45 pm
Visibility: 10 mi
Pressure29.73 "Hg
Humidity: 67%
Dew Point: 46 °F
Location of 43°02'22"N, 88°11'56"WLocation

Past Weather in 43°02'22"N, 88°11'56"W — Graph

°F

43°02'22"N, 88°11'56"W Temperature Yesterday

Maximum temperature yesterday: 70 °F (at 12:15 am)
Minimum temperature yesterday: 52 °F (at 7:45 pm)
Average temperature yesterday: 62 °F

High & Low Weather Summary for the Past Weeks

 TemperatureHumidityPressure
High77 °F (Sep 22, 3:45 pm)100% (Sep 13, 9:15 pm)30.44 "Hg (Sep 13, 9:15 pm)
Low34 °F (Sep 19, 4:15 am)35% (Sep 20, 2:45 pm)29.59 "Hg (Sep 26, 7:45 pm)
Average57 °F78%30.11 "Hg
* Reported Sep 13 3:45 pm — Sep 28 3:45 pm, 43°02'22"N, 88°11'56"W. Weather by CustomWeather, © 2020

Note: Actual official high and low records may vary slightly from our data, if they occured in-between our weather recording intervals... More about our weather records

43°02'22"N, 88°11'56"W Weather History for the Previous 24 Hours

Scroll right to see more
 ConditionsComfort  
Time TempWeatherWind HumidityBarometerVisibility
3:45 pm
Mon, Sep 28
57 °FBroken clouds.14 mph67%29.73 "Hg10 mi
2:45 pm55 °FMostly cloudy.15 mph77%29.73 "Hg10 mi
1:45 pm54 °FCloudy.14 mph82%29.72 "Hg10 mi
12:45 pm54 °FCloudy.13 mph88%29.73 "Hg7 mi
12:05 pm57 °FCloudy.7 mph77%29.73 "Hg7 mi
11:45 am57 °FCloudy.8 mph77%29.73 "Hg10 mi
10:45 am54 °FMostly cloudy.9 mph82%29.74 "Hg10 mi
9:45 am52 °FOvercast.8 mph88%29.74 "Hg10 mi
8:45 am52 °FOvercast.7 mph94%29.74 "Hg10 mi
7:45 am52 °FOvercast.5 mph94%29.74 "Hg10 mi
6:45 am50 °FMostly cloudy.5 mph94%29.74 "Hg10 mi
5:45 am50 °FLow clouds.5 mph94%29.75 "Hg10 mi
5:35 am50 °FLow clouds.5 mph94%29.75 "Hg10 mi
5:15 am50 °FLow clouds.5 mph94%29.75 "Hg10 mi
4:55 am50 °FLow clouds.3 mph94%29.74 "Hg10 mi
4:35 am50 °FLow clouds.5 mph94%29.75 "Hg10 mi
4:15 am50 °FLow clouds.3 mph88%29.74 "Hg10 mi
3:55 am50 °FLow clouds.3 mph94%29.76 "Hg10 mi
3:35 am50 °FOvercast.3 mph94%29.76 "Hg10 mi
2:55 am50 °FLight rain. Mostly cloudy.7 mph100%29.76 "Hg10 mi
2:35 am50 °FRain. Mostly cloudy.6 mph100%29.77 "Hg10 mi
2:15 am50 °FRain. Overcast.7 mph100%29.78 "Hg10 mi
1:55 am50 °FLight rain. Mostly cloudy.8 mph100%29.80 "Hg7 mi
1:15 am50 °FLight rain. Mostly cloudy.3 mph100%29.78 "Hg10 mi
12:55 am50 °FRain. Mostly cloudy.5 mph100%29.80 "Hg10 mi
12:35 am50 °FLight rain. Mostly cloudy.No wind100%29.80 "Hg10 mi
12:15 am52 °FLight rain. Overcast.3 mph94%29.79 "Hg10 mi
11:55 pm
Sun, Sep 27
52 °FRain. Overcast.3 mph94%29.77 "Hg10 mi
11:35 pm52 °FLight rain. Mostly cloudy.3 mph94%29.77 "Hg10 mi
11:15 pm52 °FLight rain. Mostly cloudy.5 mph94%29.79 "Hg10 mi
10:55 pm52 °FLight rain. Overcast.3 mph94%29.81 "Hg10 mi
10:35 pm52 °FDrizzle. Overcast.6 mph94%29.81 "Hg10 mi
10:15 pm52 °FLight rain. Overcast.8 mph94%29.81 "Hg10 mi
9:55 pm52 °FDrizzle. Mostly cloudy.9 mph94%29.82 "Hg10 mi
9:35 pm52 °FDrizzle. Mostly cloudy.7 mph94%29.82 "Hg10 mi
9:15 pm52 °FRain. Mostly cloudy.8 mph94%29.82 "Hg10 mi
8:45 pm52 °FMostly cloudy.5 mph94%29.82 "Hg10 mi
7:45 pm52 °FMostly cloudy.5 mph100%29.81 "Hg10 mi
6:45 pm54 °FMostly cloudy.5 mph94%29.82 "Hg10 mi
5:45 pm54 °FMostly cloudy.5 mph94%29.83 "Hg10 mi
5:20 pm54 °FMostly cloudy.9 mph94%29.84 "Hg10 mi
Weather by CustomWeather, © 2020

See weather overview